map of OHD home
Great Circle Mapper logo
OHD - Airport
Location
City:  Ohrid, Macedonia (Republic of)
Name:Ohrid St. Paul the Apostle Airport
ICAO:LWOH
IATA:OHD

Details
Type:Airport (Aerodrome, Airfield)
Use:Public/Civil
Latitude:4110'48"N (41.179956)
Longitude:2044'32"E (20.742325)
Datum:WGS 1984
Elevation:2313 ft (705 m)
Variation:4.24E (WMM2015 magnetic declination)
0.10 annual change
Runways:1
Longest:8366 × 140 ft (2550 × 42.5 m), paved

Time
Time Zone:UTC+1 (DST+2)
Local Time:

Weather
METAR:LWOH 242000Z 29005KT 9999 SCT035 SCT080 12/09 Q1024
TAF:LWOH 242030Z 2421/2521 VRB02KT 9999 FEW040 SCT110
BECMG 2508/2510 16008KT
TEMPO 2512/2521 SCT040 BKN090

Related Locations
Nearby:
Farthest:CHT: 11545 mi / 18580 km
Waitangi [Tuuta], Chatham Islands, NZ

Find:

   beyond  
but within

Other Information
Maps:
NOTAMs:
Links:
Sources:

  
flag of Macedonia (Republic of)   

Sectional Chart

Flight Planning
at skyvector.com

Satellite Image

Google Maps Satellite view

 

Copyright © 2004-2016 Karl L. Swartz. All rights reserved.
The Great Circle Mapper name and logo are trademarks of the Great Circle Mapper.
All other trademarks mentioned herein belong to their respective owners.
Please see credits for attibutions and further copyright information.

  Follow gcmap on Facebook Follow gcmap on Twitter Follow gcmap on Google+ GCmap on LinkedIn

hCard Microformat

Geo Microformat